Stations météo

réclame
Mon MeteoGroup
Bournemouth Airport, Grande-Bretagne (3862): Température de l'air & dewpoint: 16.04.2019 15:00:00 - 22.04.2019 15:00:00 (BST)Bournemouth Airport, Grande-Bretagne (3862): Température de l'air -20cm & Température de l'air -100cm: 16.04.2019 15:00:00 - 22.04.2019 15:00:00 (BST)Bournemouth Airport, Grande-Bretagne (3862): Vitesse du vent: 16.04.2019 15:00:00 - 22.04.2019 15:00:00 (BST)Bournemouth Airport, Grande-Bretagne (3862): Direction du vent: 16.04.2019 15:00:00 - 22.04.2019 15:00:00 (BST)Bournemouth Airport, Grande-Bretagne (3862): reduced air pressure: 16.04.2019 15:00:00 - 22.04.2019 15:00:00 (BST)Bournemouth Airport, Grande-Bretagne (3862): visibility: 16.04.2019 15:00:00 - 22.04.2019 15:00:00 (BST)Bournemouth Airport, Grande-Bretagne (3862): Ensoleillement: 16.04.2019 15:00:00 - 22.04.2019 15:00:00 (BST)Bournemouth Airport, Grande-Bretagne (3862): Quantités de précipitations: 16.04.2019 15:00:00 - 22.04.2019 15:00:00 (BST)
Date & Time tt [°C] td [°C] tt -20cm [°C] tt -100cm [°C] ff [km/h] ff [knt] dd ppp [hPa] vv [km] sd [min] rr [mm]
22.04.2019 15:00:00 18,8 7,7 - - 18 10 S 1003,2 8 60 0,0
22.04.2019 14:00:00 18,0 8,7 - - 21 11 S 1003,6 8 60 0,0
22.04.2019 13:00:00 21,1 8,9 - - 13 7 SSE 1003,8 10 60 0,0
22.04.2019 12:00:00 20,2 8,2 - - 8 4 ESE 1004,5 13 60 0,0
22.04.2019 11:00:00 19,2 8,0 - - 11 6 SSE 1005,3 10 60 0,0
22.04.2019 10:00:00 17,4 6,4 12,9 10,5 5 3 SSE 1006,0 15 48 0,0
22.04.2019 09:00:00 13,8 6,7 - - 0 0 N 1006,4 10 36 0,0
22.04.2019 08:00:00 8,9 6,7 - - 4 2 N 1007,0 10 6 0,0
22.04.2019 07:00:00 5,4 3,4 - - 0 0 N 1007,6 10 0 0,0
22.04.2019 06:00:00 4,5 2,9 - - 5 3 N 1008,1 9 0 0,0
22.04.2019 05:00:00 4,6 3,2 - - 4 2 NNW 1008,8 8 0 0,0
22.04.2019 04:00:00 4,8 3,4 - - 4 2 NW 1009,8 11 0 0,0
22.04.2019 03:00:00 4,9 2,5 - - 4 2 NE 1010,5 12 0 0,0
22.04.2019 02:00:00 5,4 2,7 - - 5 3 N 1011,5 12 0 0,0
22.04.2019 01:00:00 6,5 3,7 - - 4 2 N 1012,3 12 - 0,0
22.04.2019 00:00:00 7,6 4,6 - - 2 1 NNE 1013,2 12 0 0,0
21.04.2019 23:00:00 9,4 5,4 - - 4 2 - 1013,6 10 0 0,0
21.04.2019 22:00:00 10,3 5,0 - - 2 1 - 1014,2 10 0 0,0
21.04.2019 21:00:00 12,4 4,8 - - 2 1 S 1014,6 10 0 0,0
21.04.2019 20:00:00 16,6 4,8 - - 4 2 S 1014,8 10 54 0,0
21.04.2019 19:00:00 18,6 5,4 - - 9 5 S 1015,1 10 60 0,0
21.04.2019 18:00:00 20,5 4,9 - - 15 8 SSE 1015,6 14 60 0,0
21.04.2019 17:00:00 21,4 4,4 - - 13 7 S 1016,3 10 60 0,0
21.04.2019 16:00:00 20,3 5,6 - - 16 9 S 1017,1 10 60 0,0
21.04.2019 15:00:00 22,7 4,6 - - 15 8 S 1017,7 10 60 0,0
21.04.2019 14:00:00 22,5 4,1 - - 15 8 SSE 1018,6 10 60 0,0
21.04.2019 13:00:00 23,2 3,3 - - 4 2 ESE 1019,1 25 60 0,0
21.04.2019 12:00:00 21,2 3,8 - - 11 6 NNE 1019,8 22 60 0,0
21.04.2019 11:00:00 20,5 3,1 - - 22 12 NE 1020,6 10 60 0,0
21.04.2019 10:00:00 18,2 6,7 12,7 10,2 9 5 NE 1021,4 10 60 0,0
21.04.2019 09:00:00 15,3 8,1 - - 8 4 NNE 1022,0 15 60 0,0
21.04.2019 08:00:00 8,6 6,8 - - 2 1 N 1022,6 10 60 0,0
21.04.2019 07:00:00 4,6 3,5 - - 5 3 NW 1023,1 10 18 0,0
21.04.2019 06:00:00 4,6 3,5 - - 4 2 WNW 1023,3 9 0 0,0
21.04.2019 05:00:00 5,1 3,6 - - 4 2 NNW 1023,8 9 0 0,0
21.04.2019 04:00:00 5,7 4,2 - - 4 2 NW 1024,4 11 0 0,0
21.04.2019 03:00:00 6,8 5,1 - - 5 3 WNW 1025,0 11 0 0,0
21.04.2019 02:00:00 7,2 4,9 - - 4 2 WNW 1025,6 14 0 0,0
21.04.2019 01:00:00 8,5 5,5 - - 4 2 WNW 1026,2 15 - 0,0
21.04.2019 00:00:00 10,0 6,4 - - 4 2 NNE 1026,6 15 0 0,0
20.04.2019 23:00:00 11,1 6,4 - - 4 2 E 1026,9 17 0 0,0
20.04.2019 22:00:00 13,5 6,8 - - 4 2 N 1027,0 10 0 0,0
20.04.2019 21:00:00 14,9 5,7 - - 4 2 WSW 1027,0 19 0 0,0
20.04.2019 20:00:00 18,8 6,0 - - 4 2 SSW 1026,6 10 42 0,0
20.04.2019 19:00:00 20,3 6,4 - - 9 5 S 1026,5 22 60 0,0
20.04.2019 18:00:00 22,9 5,6 - - 9 5 S 1026,6 10 60 0,0
20.04.2019 17:00:00 24,6 5,3 - - 9 5 NE 1026,9 10 54 0,0
20.04.2019 16:00:00 24,6 7,1 - - 5 3 E 1027,4 24 60 0,0
20.04.2019 15:00:00 24,5 5,5 - - 9 5 E 1028,0 22 60 0,0
20.04.2019 14:00:00 24,3 7,6 - - 13 7 NE 1028,6 22 60 0,0
20.04.2019 13:00:00 23,6 6,4 - - 15 8 NE 1029,0 19 60 0,0
20.04.2019 12:00:00 22,0 5,0 - - 18 10 NE 1029,6 10 60 0,0
20.04.2019 11:00:00 20,9 6,6 - - 18 10 NE 1029,8 24 60 0,0
20.04.2019 10:00:00 18,4 8,5 12,0 10,0 15 8 NNE 1030,1 10 60 0,0
20.04.2019 09:00:00 15,1 7,4 - - 15 8 N 1030,4 10 60 0,0
20.04.2019 08:00:00 12,1 8,5 - - 4 2 - 1030,6 10 60 0,0
20.04.2019 07:00:00 5,4 3,6 - - 8 4 NW 1030,5 10 18 0,0
20.04.2019 06:00:00 5,4 3,8 - - 5 3 NW 1030,2 12 0 0,0
20.04.2019 05:00:00 5,3 3,8 - - 5 3 N 1030,2 12 0 0,0
20.04.2019 04:00:00 5,4 3,4 - - 5 3 WNW 1030,4 13 0 0,0
20.04.2019 03:00:00 6,7 4,9 - - 4 2 NW 1030,2 14 0 0,0
20.04.2019 02:00:00 7,2 4,6 - - 4 2 NW 1030,2 15 0 0,0
20.04.2019 01:00:00 8,0 5,0 - - 2 1 N 1030,1 15 - 0,0
20.04.2019 00:00:00 9,4 5,5 - - 2 1 N 1030,2 10 0 0,0
19.04.2019 23:00:00 10,9 5,8 - - 5 3 N 1030,0 10 0 0,0
19.04.2019 22:00:00 12,6 6,3 - - 4 2 ENE 1029,7 10 0 0,0
19.04.2019 21:00:00 15,0 5,8 - - 2 1 - 1029,3 10 0 0,0
19.04.2019 20:00:00 19,1 5,5 - - 2 1 - 1028,6 10 30 0,0
19.04.2019 19:00:00 21,2 6,7 - - 8 4 S 1027,7 25 60 0,0
19.04.2019 18:00:00 22,9 6,0 - - 8 4 S 1027,4 24 60 0,0
19.04.2019 17:00:00 23,2 5,6 - - 15 8 S 1027,1 10 60 0,0
19.04.2019 16:00:00 24,1 5,2 - - 16 9 SE 1027,0 10 60 0,0
19.04.2019 15:00:00 23,7 6,6 - - 18 10 SSE 1027,2 10 60 0,0
19.04.2019 14:00:00 23,1 4,0 - - 8 4 ESE 1027,3 28 60 0,0
19.04.2019 13:00:00 22,0 6,1 - - 13 7 ENE 1027,3 10 60 0,0
19.04.2019 12:00:00 21,0 7,0 - - 15 8 ENE 1027,2 22 60 0,0
19.04.2019 11:00:00 19,4 8,4 - - 16 9 NE 1027,2 10 60 0,0
19.04.2019 10:00:00 17,4 8,2 11,5 9,7 13 7 NNE 1027,1 15 60 0,0
19.04.2019 09:00:00 14,5 7,6 - - 11 6 NNE 1026,9 13 60 0,0
19.04.2019 08:00:00 11,9 6,7 - - 9 5 N 1026,6 10 60 0,0
19.04.2019 07:00:00 9,7 5,9 - - 9 5 N 1026,2 9 6 0,0
19.04.2019 06:00:00 8,8 5,3 - - 9 5 - 1025,5 9 0 0,0
19.04.2019 05:00:00 9,3 5,0 - - 8 4 N 1025,2 11 0 0,0
19.04.2019 04:00:00 8,6 4,6 - - 8 4 N 1025,0 12 0 0,0
19.04.2019 03:00:00 10,6 5,1 - - 8 4 NE 1024,7 13 0 0,0
19.04.2019 02:00:00 11,3 5,5 - - 15 8 NE 1024,7 13 0 0,0
19.04.2019 01:00:00 11,3 5,4 - - 13 7 NE 1024,6 13 - 0,0
19.04.2019 00:00:00 12,0 5,6 - - 13 7 NE 1024,4 13 0 0,0
18.04.2019 23:00:00 13,0 6,3 - - 13 7 NE 1024,1 13 0 0,0
18.04.2019 22:00:00 13,8 7,2 - - 11 6 ENE 1023,7 10 0 0,0
18.04.2019 21:00:00 15,4 7,1 - - 9 5 NE 1023,3 10 0 0,0
18.04.2019 20:00:00 18,7 6,5 - - 15 8 E 1022,5 10 0 0,0
18.04.2019 19:00:00 19,9 6,9 - - 16 9 E 1022,0 10 42 0,0
18.04.2019 18:00:00 21,4 5,8 - - 21 11 E 1021,3 10 60 0,0
18.04.2019 17:00:00 21,6 7,0 - - 18 10 E 1021,0 10 60 0,0
18.04.2019 16:00:00 21,3 6,8 - - 24 13 ESE 1020,9 35 60 0,0
18.04.2019 15:00:00 20,8 8,2 - - 21 11 E 1021,1 10 60 0,0
18.04.2019 14:00:00 19,9 8,7 - - 26 14 E 1021,1 10 18 0,0
18.04.2019 13:00:00 18,9 8,5 - - 28 15 E 1021,2 10 60 0,0
18.04.2019 12:00:00 18,2 8,6 - - 22 12 E 1021,1 19 60 0,0
18.04.2019 11:00:00 17,3 9,7 - - 22 12 E 1021,2 7 42 0,0
18.04.2019 10:00:00 15,3 9,6 10,7 9,7 21 11 ENE 1021,2 5 24 0,0
18.04.2019 09:00:00 13,1 8,8 - - 18 10 ENE 1020,9 5 0 0,0
18.04.2019 08:00:00 11,1 8,5 - - 16 9 ENE 1020,8 5 0 0,0
18.04.2019 07:00:00 10,1 7,9 - - 15 8 ENE 1020,4 5 0 0,0
18.04.2019 06:00:00 9,5 7,6 - - 13 7 E 1020,0 4,0 0 0,0
18.04.2019 05:00:00 9,8 7,8 - - 16 9 ENE 1019,9 4,3 0 0,0
18.04.2019 04:00:00 9,7 7,5 - - 15 8 ENE 1020,1 4,9 0 0,0
18.04.2019 03:00:00 9,9 7,5 - - 15 8 ENE 1020,1 6 0 0,0
18.04.2019 02:00:00 9,9 7,5 - - 13 7 E 1020,3 8 0 0,0
18.04.2019 01:00:00 9,5 7,2 - - 11 6 ENE 1020,3 8 - 0,0
18.04.2019 00:00:00 9,0 6,8 - - 9 5 ENE 1020,1 10 0 0,0
17.04.2019 23:00:00 8,5 6,6 - - 9 5 ENE 1019,8 9 0 0,0
17.04.2019 22:00:00 8,2 6,7 - - 9 5 ENE 1019,6 5 0 0,0
17.04.2019 21:00:00 8,9 7,2 - - 9 5 E 1019,6 4,0 0 0,0
17.04.2019 20:00:00 9,7 8,7 - - 4 2 SE 1019,2 3,4 0 0,0
17.04.2019 19:00:00 10,6 8,7 - - 11 6 S 1018,8 3,0 18 0,0
17.04.2019 18:00:00 11,8 9,1 - - 15 8 S 1018,5 3,0 60 0,0
17.04.2019 17:00:00 12,4 8,4 - - 18 10 S 1018,4 5 60 0,0
17.04.2019 16:00:00 14,6 9,1 - - 16 9 SSE 1018,4 5 60 0,0
17.04.2019 15:00:00 15,0 8,9 - - 16 9 SSE 1018,7 6 48 0,0
17.04.2019 14:00:00 15,2 9,2 - - 15 8 SSE 1018,7 5 6 0,0
17.04.2019 13:00:00 14,4 8,6 - - 13 7 SSE 1019,1 5 0 0,0
17.04.2019 12:00:00 14,4 8,1 - - 13 7 SSE 1019,4 5 36 0,0
17.04.2019 11:00:00 14,5 8,5 - - 8 4 - 1019,3 5 60 0,0
17.04.2019 10:00:00 12,6 9,9 10,2 9,5 4 2 - 1019,5 4,5 60 0,0
17.04.2019 09:00:00 7,5 7,5 - - 2 1 NNW 1019,4 3,8 60 0,0
17.04.2019 08:00:00 4,7 4,5 - - 2 1 N 1019,2 1,0 18 0,0
17.04.2019 07:00:00 3,1 2,8 - - 4 2 N 1018,9 0,2 0 0,2
17.04.2019 06:00:00 2,7 2,5 - - 4 2 NW 1018,6 0,1 0 0,0
17.04.2019 05:00:00 3,1 2,8 - - 4 2 N 1018,3 0,1 0 0,0
17.04.2019 04:00:00 3,2 2,9 - - 4 2 N 1018,4 - 0 0,0
17.04.2019 03:00:00 3,6 3,1 - - 2 1 NNW 1018,6 - 0 0,0
17.04.2019 02:00:00 4,9 4,3 - - 2 1 W 1018,7 - 0 0,0
17.04.2019 01:00:00 5,8 5,1 - - 4 2 WNW 1018,6 0,1 - 0,0
17.04.2019 00:00:00 8,8 7,9 - - 2 1 NNW 1018,5 4,2 0 0,0
16.04.2019 23:00:00 8,8 8,1 - - 8 4 WNW 1018,4 4,7 0 0,0
16.04.2019 22:00:00 7,8 6,2 - - 9 5 W 1018,1 5 0 0,0
16.04.2019 21:00:00 9,0 6,7 - - 9 5 W 1017,9 7 0 0,0
16.04.2019 20:00:00 11,6 8,0 - - 8 4 WNW 1017,2 8 0 0,0
16.04.2019 19:00:00 12,2 8,7 - - 5 3 W 1016,7 8 0 0,0
16.04.2019 18:00:00 12,2 8,1 - - 15 8 WNW 1016,4 11 0 0,0
16.04.2019 17:00:00 12,9 7,7 - - 9 5 SW 1016,0 12 0 0,0
16.04.2019 16:00:00 14,0 7,1 - - 5 3 WNW 1015,8 13 0 0,0
16.04.2019 15:00:00 13,8 6,0 - - 5 3 - 1015,8 9 0 0,0

tt = Température de l'air
td = dewpoint
tt -20cm = Température de l'air -20cm
tt -100cm = Température de l'air -100cm
ff = Vitesse du vent
dd = Direction du vent
ppp = reduced air pressure
vv = visibility
sd = Ensoleillement
rr = Quantités de précipitations

stations d'obs. à proximité